Weather History for KDEC - July, 2013

Change the Weather History Date:

Friday, July 5, 2013

  Actual Average Record
Temperature  
Mean Temperature 71 °F 76 °F  
Max Temperature 82 °F 87 °F 104 °F (2012)
Min Temperature 60 °F 66 °F 51 °F (1996)
Degree Days  
Heating Degree Days 0 0  
Month to date heating degree days 0 0  
Since 1 June heating degree days 14 17  
Since 1 July heating degree days 0 0  
Cooling Degree Days 6 11  
Month to date cooling degree days 23 55  
Year to date cooling degree days 377 371  
Since 1 June cooling degree days 265 284  
Growing Degree Days 20 (Base 50)    
Moisture  
Dew Point 64 °F    
Average Humidity 77    
Maximum Humidity 100    
Minimum Humidity 54    
Precipitation  
Precipitation 0.00 in 0.14 in 0.19 in (2014)
Month to date precipitation 0.08 0.64  
Year to date precipitation 23.34 19.44  
Sea Level Pressure  
Sea Level Pressure 30.07 in    
Wind  
Wind Speed 5 mph (SSE)    
Max Wind Speed 14 mph    
Max Gust Speed 22 mph    
Visibility 5 miles    
Events Fog    
T = Trace of Precipitation, MM = Missing Value Source: NWS Daily Summary

Daily Weather History Graph

Daily Weather History Graph

Search for Another Location

Airport or City:

Trip Planner

Search our weather history database for the weather conditions in past years. The results will help you decide how hot, cold, wet, or windy it might be!

Date:

Astronomy

Jul. 05, 2013 Rise Set
Actual Time 5:33 AM CDT 8:26 PM CDT
Civil Twilight 5:00 AM CDT 8:59 PM CDT
Nautical Twilight 4:19 AM CDT 9:39 PM CDT
Astronomical Twilight 3:32 AM CDT 10:26 PM CDT
Moon 3:32 AM CDT (7/5) 6:21 PM CDT (7/5)
Length of Visible Light 15h 58m
Length of Day
14h 53m
Waning Crescent, 6% of the Moon is Illuminated
Jul 5
Waning Crescent
Jul 8
New
Jul 15
First Quarter
Jul 22
Full
Jul 29
Last Quarter

Hourly Weather History & Observations

Time (CDT) Temp. Heat Index Dew Point Humidity Pressure Visibility Wind Dir Wind Speed Gust Speed Precip Events Conditions
12:54 AM 64.0 °F - 62.1 °F 93% 30.07 in 5.0 mi Calm Calm - N/A   Clear
1:54 AM 62.1 °F - 60.1 °F 93% 30.06 in 3.0 mi East 3.5 mph - N/A   Clear
2:03 AM 62.6 °F - 62.6 °F 100% 30.07 in 2.5 mi Calm Calm - N/A   Clear
2:15 AM 62.6 °F - 62.6 °F 100% 30.07 in 3.0 mi Calm Calm - N/A   Clear
2:38 AM 62.6 °F - 62.6 °F 100% 30.06 in 1.8 mi Calm Calm - N/A   Clear
2:50 AM 62.6 °F - 60.8 °F 94% 30.05 in 0.8 mi Calm Calm - N/A   Clear
2:54 AM 63.0 °F - 61.0 °F 93% 30.05 in 1.0 mi Calm Calm - N/A   Clear
3:43 AM 64.4 °F - 62.6 °F 94% 30.06 in 2.5 mi Calm Calm - N/A   Clear
3:54 AM 64.9 °F - 64.0 °F 97% 30.05 in 2.5 mi South 3.5 mph - N/A   Clear
4:27 AM 62.6 °F - 60.8 °F 94% 30.07 in 1.5 mi SSW 3.5 mph - N/A   Clear
4:39 AM 64.4 °F - 62.6 °F 94% 30.08 in 2.0 mi South 4.6 mph - N/A   Clear
4:54 AM 64.9 °F - 63.0 °F 93% 30.06 in 2.0 mi Calm Calm - N/A   Clear
5:01 AM 64.4 °F - 62.6 °F 94% 30.08 in 1.8 mi Calm Calm - N/A   Partly Cloudy
5:07 AM 64.4 °F - 62.6 °F 94% 30.08 in 0.8 mi Calm Calm - N/A   Mist
5:27 AM 60.8 °F - 59.0 °F 94% 30.08 in 0.2 mi Calm Calm - N/A Fog Fog
5:47 AM 64.4 °F - 62.6 °F 94% 30.09 in 0.2 mi South 3.5 mph - N/A Fog Fog
5:54 AM 64.9 °F - 64.0 °F 97% 30.07 in 0.2 mi Calm Calm - N/A Fog Fog
6:41 AM 64.4 °F - 64.4 °F 100% 30.08 in 0.2 mi SSW 3.5 mph - N/A Fog Fog
6:54 AM 66.0 °F - 64.9 °F 96% 30.08 in 0.2 mi South 4.6 mph - N/A Fog Fog
7:08 AM 66.2 °F - 64.4 °F 94% 30.09 in 0.5 mi SW 3.5 mph - N/A Fog Fog
7:25 AM 66.2 °F - 64.4 °F 94% 30.09 in 1.5 mi SSW 3.5 mph - N/A   Overcast
7:38 AM 66.2 °F - 64.4 °F 94% 30.10 in 2.5 mi South 4.6 mph - N/A   Overcast
7:47 AM 66.2 °F - 64.4 °F 94% 30.10 in 3.0 mi Variable 4.6 mph - N/A   Overcast
7:54 AM 68.0 °F - 66.0 °F 93% 30.10 in 3.0 mi South 4.6 mph - N/A   Mostly Cloudy
8:31 AM 69.8 °F - 66.2 °F 88% 30.11 in 7.0 mi SW 4.6 mph - N/A   Partly Cloudy
8:54 AM 70.0 °F - 66.0 °F 87% 30.10 in 7.0 mi South 3.5 mph - N/A   Mostly Cloudy
9:51 AM 71.6 °F - 66.2 °F 83% 30.11 in 7.0 mi SE 4.6 mph - N/A   Overcast
9:54 AM 72.0 °F - 66.0 °F 81% 30.10 in 7.0 mi ESE 4.6 mph - N/A   Overcast
10:54 AM 73.9 °F - 66.0 °F 76% 30.11 in 8.0 mi SE 6.9 mph - N/A   Mostly Cloudy
11:15 AM 75.2 °F - 66.2 °F 73% 30.12 in 8.0 mi SE 5.8 mph - N/A   Mostly Cloudy
11:54 AM 75.9 °F - 66.0 °F 71% 30.10 in 8.0 mi SE 8.1 mph - N/A   Mostly Cloudy
12:54 PM 79.0 °F - 66.0 °F 64% 30.10 in 9.0 mi ESE 6.9 mph - N/A   Scattered Clouds
1:54 PM 80.1 °F 81.9 °F 64.9 °F 60% 30.08 in 10.0 mi East 6.9 mph - N/A   Mostly Cloudy
2:54 PM 79.0 °F - 64.0 °F 60% 30.07 in 10.0 mi SSE 6.9 mph - N/A   Clear
3:54 PM 81.0 °F 82.5 °F 64.0 °F 56% 30.05 in 10.0 mi SSE 9.2 mph - N/A   Scattered Clouds
4:54 PM 81.0 °F 82.2 °F 63.0 °F 54% 30.04 in 10.0 mi South 9.2 mph - N/A   Partly Cloudy
5:54 PM 80.1 °F 81.5 °F 63.0 °F 56% 30.04 in 10.0 mi South 10.4 mph - N/A   Clear
6:54 PM 79.0 °F - 64.0 °F 60% 30.02 in 10.0 mi South 6.9 mph - N/A   Clear
7:54 PM 77.0 °F - 64.0 °F 64% 30.03 in 10.0 mi SSE 6.9 mph - N/A   Clear
8:54 PM 73.9 °F - 64.0 °F 71% 30.04 in 10.0 mi South 4.6 mph - N/A   Clear
9:54 PM 72.0 °F - 64.9 °F 78% 30.06 in 8.0 mi South 4.6 mph - N/A   Clear
10:54 PM 72.0 °F - 66.0 °F 81% 30.06 in 10.0 mi SSE 3.5 mph - N/A   Clear
11:54 PM 70.0 °F - 66.0 °F 87% 30.06 in 9.0 mi South 3.5 mph - N/A   Clear